• In Germany
  • List of Countries
  • For 7 days
  • Water Temperature
  • Satellite Maps
  • Weather Map
  • Weather Widgets
  • user-avatar
    Login

    Hourly Weather Sliven

    Today, 17 October, Tuesday

    Time Temperature Precipitation Wind Pressure Humidity
    00:00 +14°C° 0 mm 1 mps 741 mmHg 73%
    01:00 +14°C° 0 mm 1 mps 741 mmHg 74%
    02:00 +13°C° 0 mm 0 mps 741 mmHg 76%
    03:00 +14°C° 0 mm 1 mps 741 mmHg 76%
    04:00 +13°C° 0 mm 1 mps 740 mmHg 77%
    05:00 +13°C° 0 mm 1 mps 740 mmHg 77%
    06:00 +14°C° 0 mm 1 mps 740 mmHg 74%
    07:00 +15°C° 0 mm 1 mps 740 mmHg 70%
    08:00 +16°C° 0 mm 1 mps 740 mmHg 67%
    09:00 +19°C° 0 mm 1 mps 741 mmHg 59%
    10:00 +21°C° 0 mm 1 mps 741 mmHg 50%
    11:00 +23°C° 0 mm 1 mps 741 mmHg 42%
    12:00 +24°C° 0 mm 1 mps 741 mmHg 39%
    13:00 +25°C° 0 mm 1 mps 740 mmHg 35%
    14:00 +26°C° 0 mm 1 mps 740 mmHg 32%
    15:00 +25°C° 0 mm 1 mps 740 mmHg 35%
    16:00 +24°C° 0 mm 1 mps 739 mmHg 38%
    17:00 +23°C° 0 mm 1 mps 739 mmHg 42%
    18:00 +21°C° 0 mm 1 mps 739 mmHg 44%
    19:00 +20°C° 0 mm 1 mps 739 mmHg 47%
    20:00 +17°C° 0 mm 0 mps 739 mmHg 50%
    21:00 +16°C° 0 mm 0 mps 739 mmHg 51%
    22:00 +18°C° 0 mm 1 mps 739 mmHg 52%
    23:00 +18°C° 0 mm 1 mps 739 mmHg 53%

    Tomorrow, 18 October, Wednesday

    Time Temperature Precipitation Wind Pressure Humidity
    00:00 +16°C° 0 mm 1 mps 738 mmHg 54%
    01:00 +16°C° 0 mm 1 mps 738 mmHg 55%
    02:00 +16°C° 0 mm 1 mps 738 mmHg 56%
    03:00 +15°C° 0 mm 1 mps 738 mmHg 57%
    04:00 +15°C° 0 mm 1 mps 738 mmHg 58%
    05:00 +15°C° 0 mm 1 mps 737 mmHg 58%
    06:00 +16°C° 0 mm 1 mps 737 mmHg 57%
    07:00 +16°C° 0 mm 1 mps 738 mmHg 55%
    08:00 +18°C° 0 mm 1 mps 738 mmHg 54%
    09:00 +20°C° 0 mm 1 mps 738 mmHg 47%
    10:00 +22°C° 0 mm 1 mps 738 mmHg 41%
    11:00 +24°C° 0 mm 1 mps 738 mmHg 35%
    12:00 +25°C° 0 mm 1 mps 737 mmHg 33%
    13:00 +25°C° 0 mm 1 mps 737 mmHg 31%
    14:00 +26°C° 0 mm 1 mps 737 mmHg 30%
    15:00 +25°C° 0 mm 1 mps 736 mmHg 33%
    16:00 +24°C° 0 mm 1 mps 736 mmHg 37%
    17:00 +22°C° 0 mm 1 mps 735 mmHg 41%
    18:00 +21°C° 0 mm 1 mps 735 mmHg 44%
    19:00 +20°C° 0 mm 1 mps 735 mmHg 47%
    20:00 +17°C° 0 mm 2 mps 735 mmHg 51%
    21:00 +17°C° 0 mm 2 mps 735 mmHg 53%
    22:00 +16°C° 0 mm 1 mps 735 mmHg 54%
    23:00 +16°C° 0 mm 1 mps 735 mmHg 56%

    Day after tomorrow, 19 October, Thursday

    Time Temperature Precipitation Wind Pressure Humidity
    00:00 +15°C° 0 mm 1 mps 735 mmHg 57%
    01:00 +15°C° 0 mm 1 mps 735 mmHg 58%
    02:00 +14°C° 0 mm 1 mps 734 mmHg 59%
    03:00 +14°C° 0 mm 1 mps 734 mmHg 59%
    04:00 +14°C° 0 mm 1 mps 734 mmHg 60%
    05:00 +14°C° 0 mm 1 mps 734 mmHg 60%
    06:00 +14°C° 0 mm 1 mps 734 mmHg 58%
    07:00 +15°C° 0 mm 1 mps 734 mmHg 56%
    08:00 +16°C° 0 mm 1 mps 734 mmHg 55%
    09:00 +19°C° 0 mm 1 mps 734 mmHg 48%
    10:00 +21°C° 0 mm 1 mps 734 mmHg 42%
    11:00 +23°C° 0 mm 1 mps 734 mmHg 35%
    12:00 +24°C° 0 mm 1 mps 734 mmHg 33%
    13:00 +25°C° 0 mm 1 mps 734 mmHg 31%
    14:00 +26°C° 0 mm 1 mps 734 mmHg 29%
    15:00 +24°C° 0 mm 1 mps 734 mmHg 32%
    16:00 +23°C° 0 mm 1 mps 733 mmHg 35%
    17:00 +22°C° 0 mm 1 mps 733 mmHg 38%
    18:00 +21°C° 0 mm 1 mps 733 mmHg 41%
    19:00 +20°C° 0 mm 1 mps 733 mmHg 44%
    20:00 +18°C° 0 mm 1 mps 734 mmHg 46%
    21:00 +18°C° 0 mm 1 mps 734 mmHg 48%
    22:00 +16°C° 0 mm 1 mps 734 mmHg 49%
    23:00 +16°C° 0 mm 1 mps 734 mmHg 51%

    20 October, Friday

    Time Temperature Precipitation Wind Pressure Humidity
    00:00 +16°C° 0 mm 1 mps 734 mmHg 51%
    01:00 +15°C° 0 mm 1 mps 734 mmHg 52%
    02:00 +15°C° 0 mm 1 mps 734 mmHg 52%
    03:00 +15°C° 0 mm 1 mps 733 mmHg 53%
    04:00 +15°C° 0 mm 1 mps 733 mmHg 53%
    05:00 +14°C° 0 mm 1 mps 733 mmHg 54%
    06:00 +15°C° 0 mm 1 mps 733 mmHg 53%
    07:00 +16°C° 0 mm 1 mps 734 mmHg 52%
    08:00 +16°C° 0 mm 1 mps 734 mmHg 51%
    09:00 +20°C° 0 mm 1 mps 734 mmHg 45%
    10:00 +22°C° 0 mm 1 mps 735 mmHg 40%
    11:00 +24°C° 0 mm 1 mps 735 mmHg 34%
    12:00 +24°C° 0 mm 1 mps 735 mmHg 33%
    13:00 +25°C° 0 mm 1 mps 734 mmHg 31%
    14:00 +26°C° 0 mm 1 mps 734 mmHg 30%
    15:00 +25°C° 0 mm 1 mps 734 mmHg 33%
    16:00 +24°C° 0 mm 1 mps 734 mmHg 37%
    17:00 +22°C° 0 mm 1 mps 734 mmHg 40%
    18:00 +21°C° 0 mm 1 mps 734 mmHg 43%
    19:00 +20°C° 0 mm 1 mps 734 mmHg 45%
    20:00 +19°C° 0 mm 1 mps 734 mmHg 48%
    21:00 +19°C° 0 mm 1 mps 735 mmHg 49%
    22:00 +18°C° 0 mm 1 mps 735 mmHg 51%
    23:00 +18°C° 0 mm 1 mps 735 mmHg 52%

    21 October, Saturday

    Time Temperature Precipitation Wind Pressure Humidity
    00:00 +16°C° 0 mm 1 mps 735 mmHg 53%
    01:00 +16°C° 0 mm 1 mps 735 mmHg 54%
    02:00 +16°C° 0 mm 1 mps 735 mmHg 55%
    03:00 +16°C° 0 mm 1 mps 735 mmHg 56%
    04:00 +15°C° 0 mm 1 mps 734 mmHg 57%
    05:00 +15°C° 0 mm 1 mps 734 mmHg 58%
    06:00 +16°C° 0 mm 1 mps 735 mmHg 57%
    07:00 +16°C° 0 mm 1 mps 735 mmHg 56%
    08:00 +18°C° 0 mm 1 mps 735 mmHg 55%
    09:00 +20°C° 0 mm 1 mps 735 mmHg 49%
    10:00 +22°C° 0 mm 1 mps 735 mmHg 43%
    11:00 +24°C° 0 mm 1 mps 735 mmHg 37%
    12:00 +24°C° 0 mm 1 mps 735 mmHg 35%
    13:00 +25°C° 0 mm 1 mps 734 mmHg 33%
    14:00 +26°C° 0 mm 2 mps 734 mmHg 31%
    15:00 +24°C° 0 mm 1 mps 734 mmHg 34%
    16:00 +23°C° 0 mm 1 mps 734 mmHg 38%
    17:00 +22°C° 0 mm 1 mps 734 mmHg 41%
    18:00 +21°C° 0 mm 1 mps 734 mmHg 44%
    19:00 +20°C° 0 mm 1 mps 734 mmHg 46%
    20:00 +19°C° 0 mm 1 mps 734 mmHg 49%
    21:00 +18°C° 0 mm 1 mps 734 mmHg 50%
    22:00 +18°C° 0 mm 1 mps 734 mmHg 51%
    23:00 +18°C° 0 mm 1 mps 734 mmHg 53%

    22 October, Sunday

    Time Temperature Precipitation Wind Pressure Humidity
    00:00 +16°C° 0 mm 1 mps 733 mmHg 54%
    01:00 +16°C° 0 mm 1 mps 733 mmHg 55%
    02:00 +15°C° 0 mm 1 mps 733 mmHg 56%
    03:00 +15°C° 0 mm 1 mps 733 mmHg 57%
    04:00 +15°C° 0 mm 1 mps 733 mmHg 57%
    05:00 +14°C° 0 mm 1 mps 733 mmHg 58%
    06:00 +15°C° 0 mm 1 mps 733 mmHg 56%
    07:00 +16°C° 0 mm 1 mps 733 mmHg 55%
    08:00 +16°C° 0 mm 1 mps 733 mmHg 53%
    09:00 +19°C° 0 mm 1 mps 733 mmHg 47%
    10:00 +21°C° 0 mm 1 mps 733 mmHg 41%
    11:00 +23°C° 0 mm 2 mps 733 mmHg 35%
    12:00 +24°C° 0 mm 2 mps 733 mmHg 33%
    13:00 +24°C° 0 mm 2 mps 732 mmHg 31%
    14:00 +25°C° 0 mm 2 mps 732 mmHg 29%
    15:00 +24°C° 0 mm 1 mps 732 mmHg 32%
    16:00 +23°C° 0 mm 1 mps 731 mmHg 35%
    17:00 +22°C° 0 mm 1 mps 731 mmHg 38%
    18:00 +21°C° 0 mm 1 mps 731 mmHg 40%
    19:00 +19°C° 0 mm 1 mps 731 mmHg 42%
    20:00 +18°C° 0 mm 1 mps 731 mmHg 44%
    21:00 +18°C° 0 mm 1 mps 731 mmHg 46%
    22:00 +16°C° 0 mm 1 mps 731 mmHg 48%
    23:00 +16°C° 0 mm 1 mps 731 mmHg 49%
    Show more